"startDT [UTC]","vpos","CH4 [ppm]","stdev(CH4) [ppm]","CO2 [ppm]","stdev(CO2) [ppm]","H2O_reported [%]","stdev(H2O_reported)","CavityPressure [torr]","CavityTemp [C]","OutletValve","CH4_dry [ppm]","CO2_dry [ppm]","DasTemp [C]","EtalonTemp [C]","WarmBoxTemp [C]","MPVPosition","T_ECpre [C]","T_EC1 [C]","T_EC2 [C]","p_inlet [hPa]","p_in [hPa]","p_out [hPa]","T_inlet [C]","RH_inlet [%]","dwpt_inlet [C]","T_vent [C]","RH_vent [%]","dwpt_vent [C]","flow_vent [l min-1]","flow_inlet [l min-1]","dwpt_sample [C]","T_room [C]"
2016-10-09 00:00:00,0.0,1.95553,0.00036,399.307,0.051,0.5526,0.0020,139.998,45.000,31692.75724,1.96636,402.006,35.005,45.071,45.000,0.00,0.07,-272.88,-272.92,-12,533,-947,23.9,14.2,-5.0,23.6,14.7,-4.8,0.49,2.08,-1.8,27.8
2016-10-09 00:01:00,0.0,1.95647,0.00050,399.394,0.041,0.5541,0.0019,139.999,45.000,31692.35589,1.96727,402.100,35.002,45.071,45.000,0.00,0.07,-272.87,-272.92,-11,533,-947,23.9,14.2,-5.1,23.6,14.8,-4.8,0.50,1.86,-1.8,27.7
2016-10-09 00:02:00,0.0,1.95681,0.00042,399.407,0.041,0.5552,0.0020,140.001,45.000,31690.75557,1.96768,402.120,35.001,45.071,45.000,0.00,0.07,-272.88,-272.91,-11,533,-947,24.0,14.2,-5.0,23.6,14.8,-4.8,0.49,1.80,-1.8,27.8
2016-10-09 00:03:00,0.0,1.95658,0.00042,399.398,0.029,0.5570,0.0014,140.001,45.000,31692.83289,1.96750,402.118,35.000,45.071,45.000,0.00,0.07,-272.89,-272.92,-12,533,-947,23.9,14.2,-5.0,23.6,14.8,-4.8,0.49,2.10,-1.8,27.9
2016-10-09 00:04:00,0.0,1.95856,0.00197,399.542,0.128,0.5557,0.0019,140.001,45.000,31689.86378,1.96952,402.261,35.001,45.071,45.000,0.00,0.07,-272.87,-272.92,-11,533,-947,24.0,14.2,-5.0,23.6,14.8,-4.7,0.49,1.73,-1.8,27.9
2016-10-09 00:05:00,0.0,1.95352,0.00081,399.144,0.072,0.5516,0.0024,140.002,45.000,31691.14371,1.96437,401.839,35.011,45.071,45.000,0.00,0.07,-272.88,-272.91,-11,533,-947,24.0,14.1,-5.1,23.6,14.7,-4.8,0.49,1.98,-1.7,27.9
2016-10-09 00:06:00,0.0,1.95293,0.00069,399.106,0.061,0.5561,0.0024,140.001,45.000,31691.11572,1.96383,401.823,35.028,45.071,45.000,0.00,0.07,-272.88,-272.92,-12,533,-947,23.9,14.2,-5.0,23.6,14.8,-4.8,0.50,1.97,-1.7,28.0
2016-10-09 00:07:00,0.0,1.95236,0.00029,399.057,0.038,0.5572,0.0017,139.999,45.000,31692.47493,1.96325,401.776,35.043,45.071,45.000,0.00,0.07,-272.88,-272.91,-11,533,-947,24.0,14.3,-4.9,23.6,14.8,-4.7,0.49,1.74,-1.7,27.9
2016-10-09 00:08:00,0.0,1.95610,0.00159,399.364,0.141,0.5566,0.0027,140.000,45.000,31691.00307,1.96686,402.076,35.037,45.071,45.000,0.00,0.07,-272.88,-272.91,-11,533,-947,24.0,14.2,-4.9,23.6,14.9,-4.7,0.49,2.11,-1.7,28.0
2016-10-09 00:09:00,0.0,1.95540,0.00069,399.302,0.057,0.5533,0.0013,139.999,45.000,31688.76690,1.96627,402.007,35.054,45.071,45.000,0.00,0.07,-272.87,-272.92,-12,533,-947,23.9,14.2,-5.0,23.6,14.8,-4.7,0.49,1.76,-1.7,27.9
2016-10-09 00:10:00,0.0,1.95481,0.00054,399.242,0.038,0.5541,0.0021,140.000,45.000,31689.84849,1.96568,401.949,35.061,45.071,45.000,0.00,0.07,-272.88,-272.92,-11,533,-947,24.0,14.2,-5.0,23.6,14.7,-4.8,0.49,1.95,-1.7,28.0
2016-10-09 00:11:00,0.0,1.95620,0.00135,399.364,0.098,0.5555,0.0014,139.998,45.000,31690.16164,1.96698,402.074,35.047,45.071,45.000,0.00,0.07,-272.87,-272.91,-11,533,-947,24.0,14.2,-5.0,23.6,14.8,-4.8,0.50,1.99,-1.7,27.9
2016-10-09 00:12:00,0.0,1.95701,0.00058,399.389,0.037,0.5550,0.0018,139.999,45.000,31690.64854,1.96791,402.101,35.046,45.071,45.000,0.00,0.07,-272.87,-272.91,-12,533,-947,24.0,14.2,-5.0,23.6,14.7,-4.8,0.49,1.73,-1.7,27.9
2016-10-09 00:13:00,0.0,1.95634,0.00041,399.328,0.041,0.5559,0.0019,140.000,45.000,31689.37147,1.96724,402.043,35.021,45.071,45.000,0.00,0.07,-272.88,-272.91,-11,533,-947,24.0,14.2,-4.9,23.6,14.8,-4.7,0.49,2.10,-1.7,27.8
2016-10-09 00:14:00,0.0,1.95613,0.00041,399.338,0.049,0.5572,0.0026,140.000,45.000,31691.49397,1.96699,402.057,35.007,45.071,45.000,0.00,0.07,-272.87,-272.92,-11,533,-947,24.0,14.3,-4.9,23.6,14.8,-4.7,0.49,1.80,-1.7,27.8
2016-10-09 00:15:00,0.0,1.95731,0.00049,399.430,0.056,0.5574,0.0017,140.001,45.000,31690.98390,1.96820,402.153,35.001,45.071,45.000,0.00,0.07,-272.88,-272.92,-12,533,-947,24.0,14.3,-4.9,23.6,14.8,-4.7,0.49,1.86,-1.7,27.8
2016-10-09 00:16:00,0.0,1.95727,0.00053,399.424,0.052,0.5575,0.0016,139.999,45.000,31691.51153,1.96819,402.147,35.001,45.071,45.000,0.00,0.07,-272.88,-272.92,-11,533,-947,24.0,14.3,-4.9,23.6,14.9,-4.7,0.49,2.07,-1.7,27.8
2016-10-09 00:17:00,0.0,1.95840,0.00032,399.533,0.082,0.5576,0.0016,140.000,45.000,31691.15107,1.96932,402.253,35.001,45.071,45.000,0.00,0.07,-272.88,-272.92,-11,533,-947,24.0,14.2,-4.9,23.6,14.8,-4.7,0.49,1.70,-1.7,27.9
2016-10-09 00:18:00,0.0,1.95990,0.00044,399.651,0.071,0.5572,0.0014,139.998,45.000,31691.62153,1.97073,402.375,35.000,45.071,45.000,0.00,0.07,-272.88,-272.91,-12,533,-947,24.0,14.2,-4.9,23.6,14.8,-4.7,0.49,2.05,-1.7,27.9
2016-10-09 00:19:00,0.0,1.96713,0.00702,399.988,0.414,0.5580,0.0015,140.003,45.000,31693.22889,1.97746,402.704,35.005,45.071,45.000,0.00,0.07,-272.87,-272.92,-11,533,-947,24.0,14.2,-4.9,23.6,14.9,-4.7,0.50,1.87,-1.7,27.9
2016-10-09 00:20:00,0.0,1.98968,0.00457,400.920,0.271,0.5526,0.0040,140.001,45.000,31694.94841,2.00065,403.634,35.013,45.071,45.000,0.00,0.07,-272.89,-272.92,-11,533,-947,24.0,14.1,-5.0,23.6,14.8,-4.7,0.49,1.83,-1.7,28.0
2016-10-09 00:21:00,0.0,1.97835,0.00199,400.288,0.086,0.5443,0.0019,139.998,45.000,31695.07855,1.98928,402.956,35.019,45.071,45.000,0.00,0.07,-272.88,-272.92,-12,533,-947,24.0,13.9,-5.2,23.6,14.5,-4.9,0.50,2.08,-1.7,28.0
2016-10-09 00:22:00,0.0,1.97835,0.00080,400.281,0.032,0.5482,0.0022,139.998,45.000,31694.71599,1.98917,402.962,35.044,45.071,45.000,0.00,0.07,-272.87,-272.91,-11,533,-947,24.0,14.0,-5.2,23.6,14.6,-4.9,0.49,1.71,-1.7,28.0
2016-10-09 00:23:00,0.0,1.98348,0.00350,400.592,0.233,0.5506,0.0018,140.001,45.000,31694.98352,1.99405,403.276,35.042,45.071,45.000,0.00,0.07,-272.89,-272.91,-11,533,-947,24.0,14.0,-5.1,23.6,14.6,-4.9,0.49,2.08,-1.7,28.0
2016-10-09 00:24:00,0.0,1.99042,0.00080,401.225,0.090,0.5489,0.0010,140.000,45.000,31693.73037,2.00127,403.917,35.055,45.071,45.000,0.00,0.07,-272.87,-272.92,-12,533,-947,24.0,14.0,-5.1,23.6,14.6,-4.9,0.49,1.81,-1.7,28.0
2016-10-09 00:25:00,0.0,1.99252,0.00098,401.327,0.077,0.5460,0.0017,140.002,45.000,31692.45449,2.00335,404.003,35.062,45.071,45.000,0.00,0.07,-272.88,-272.91,-11,533,-947,24.0,13.9,-5.2,23.7,14.5,-4.9,0.49,1.88,-1.7,27.9
2016-10-09 00:26:00,0.0,1.98753,0.00221,401.050,0.136,0.5422,0.0021,140.000,45.000,31692.26443,1.99846,403.715,35.063,45.071,45.000,0.00,0.07,-272.87,-272.92,-11,533,-947,24.0,13.8,-5.3,23.6,14.5,-5.0,0.50,2.05,-1.7,27.9
2016-10-09 00:27:00,0.0,1.98767,0.00122,401.113,0.114,0.5386,0.0015,140.000,45.000,31692.95639,1.99838,403.754,35.060,45.071,45.000,0.00,0.07,-272.87,-272.92,-12,533,-947,24.0,13.7,-5.4,23.7,14.4,-5.1,0.49,1.71,-1.7,27.8
2016-10-09 00:28:00,0.0,1.98833,0.00232,401.064,0.170,0.5390,0.0014,140.000,45.000,31694.75495,1.99916,403.710,35.017,45.071,45.000,0.00,0.07,-272.88,-272.92,-11,533,-947,24.0,13.8,-5.4,23.6,14.3,-5.1,0.49,2.07,-1.7,27.8
2016-10-09 00:29:00,0.0,1.98527,0.00108,400.864,0.070,0.5363,0.0018,139.997,45.000,31692.62603,1.99598,403.494,35.003,45.071,45.000,0.00,0.07,-272.87,-272.92,-11,533,-947,24.0,13.7,-5.4,23.6,14.3,-5.2,0.50,1.88,-1.7,27.9
2016-10-09 00:30:00,0.0,1.98344,0.00231,400.762,0.114,0.5338,0.0020,140.000,45.000,31693.18554,1.99420,403.380,35.003,45.071,45.000,0.00,0.07,-272.88,-272.92,-12,533,-947,24.0,13.6,-5.5,23.7,14.2,-5.2,0.49,1.79,-1.7,27.9
2016-10-09 00:31:00,0.0,1.98014,0.00085,400.761,0.070,0.5307,0.0017,140.002,45.000,31692.12769,1.99064,403.357,35.003,45.071,45.000,0.00,0.07,-272.88,-272.92,-11,533,-947,24.0,13.5,-5.6,23.7,14.1,-5.3,0.49,2.10,-1.7,27.9
2016-10-09 00:32:00,0.0,1.97595,0.00194,400.537,0.145,0.5303,0.0016,140.001,45.000,31695.17302,1.98662,403.141,35.001,45.071,45.000,0.00,0.07,-272.87,-272.92,-11,533,-947,24.0,13.5,-5.6,23.6,14.1,-5.4,0.49,1.73,-1.7,27.9
2016-10-09 00:33:00,0.0,1.97313,0.00081,400.358,0.048,0.5307,0.0017,139.999,45.000,31693.97765,1.98361,402.953,34.999,45.071,45.000,0.00,0.07,-272.89,-272.92,-12,533,-947,24.0,13.5,-5.6,23.7,14.1,-5.3,0.49,1.97,-1.7,27.9
2016-10-09 00:34:00,0.0,1.96964,0.00251,400.176,0.180,0.5328,0.0017,139.999,45.000,31694.36550,1.98034,402.789,34.997,45.071,45.000,0.00,0.07,-272.88,-272.92,-11,533,-947,24.0,13.6,-5.6,23.6,14.2,-5.3,0.50,1.97,-1.7,27.9
2016-10-09 00:35:00,0.0,1.96769,0.00081,400.119,0.071,0.5337,0.0011,139.998,45.000,31695.17013,1.97814,402.724,35.000,45.071,45.000,0.00,0.07,-272.88,-272.90,-11,533,-947,24.0,13.6,-5.5,23.6,14.2,-5.2,0.49,1.74,-1.7,28.0
2016-10-09 00:36:00,0.0,1.96716,0.00079,400.068,0.085,0.5358,0.0013,140.000,45.000,31696.42814,1.97772,402.692,34.971,45.071,45.000,0.00,0.07,-272.88,-272.91,-12,533,-947,24.1,13.6,-5.4,23.7,14.2,-5.2,0.49,2.11,-1.7,28.0
2016-10-09 00:37:00,0.0,1.96446,0.00159,399.805,0.115,0.5351,0.0016,140.002,45.000,31698.31690,1.97510,402.424,34.986,45.071,45.000,0.00,0.07,-272.88,-272.93,-11,534,-947,24.1,13.6,-5.4,23.6,14.2,-5.2,0.49,1.75,-1.7,27.9
2016-10-09 00:38:00,0.0,1.96724,0.00115,400.028,0.118,0.5343,0.0021,140.001,45.000,31696.67932,1.97761,402.634,34.996,45.071,45.000,0.00,0.07,-272.88,-272.91,-11,533,-947,24.1,13.6,-5.4,23.7,14.2,-5.2,0.49,1.95,-1.7,27.9
2016-10-09 00:39:00,0.0,1.96827,0.00042,400.062,0.084,0.5352,0.0022,140.001,45.000,31695.35919,1.97878,402.681,34.999,45.071,45.000,0.00,0.07,-272.87,-272.92,-12,533,-947,24.1,13.7,-5.4,23.6,14.2,-5.2,0.50,2.00,-1.7,27.9
2016-10-09 00:40:00,0.0,1.96446,0.00228,399.760,0.121,0.5344,0.0016,140.000,45.000,31695.86421,1.97501,402.374,35.000,45.071,45.000,0.00,0.07,-272.88,-272.92,-11,533,-947,24.1,13.6,-5.5,23.7,14.2,-5.2,0.49,1.73,-1.7,27.9
2016-10-09 00:41:00,0.0,1.96735,0.00056,399.925,0.058,0.5341,0.0022,140.000,45.000,31697.44483,1.97785,402.534,35.013,45.071,45.000,0.00,0.07,-272.89,-272.91,-11,533,-947,24.0,13.6,-5.5,23.7,14.2,-5.3,0.49,2.10,-1.7,27.9
2016-10-09 00:42:00,0.0,1.96895,0.00062,400.090,0.073,0.5347,0.0017,139.998,45.000,31699.14164,1.97946,402.704,35.009,45.071,45.000,0.00,0.07,-272.87,-272.91,-12,533,-947,24.1,13.6,-5.4,23.7,14.2,-5.2,0.50,1.79,-1.7,27.9
2016-10-09 00:43:00,0.0,1.96917,0.00086,400.007,0.086,0.5332,0.0025,140.001,45.000,31699.72187,1.97967,402.617,35.004,45.071,45.000,0.00,0.07,-272.88,-272.92,-11,534,-947,24.1,13.6,-5.5,23.7,14.2,-5.2,0.49,1.90,-1.7,27.9
2016-10-09 00:44:00,0.0,1.97091,0.00100,399.941,0.075,0.5337,0.0017,140.000,45.000,31698.81766,1.98134,402.549,35.000,45.071,45.000,0.00,0.07,-272.88,-272.93,-11,533,-947,24.0,13.6,-5.5,23.7,14.1,-5.3,0.50,2.04,-1.7,27.8
2016-10-09 00:45:00,0.0,1.97037,0.00109,399.959,0.083,0.5331,0.0018,140.000,45.000,31699.78114,1.98086,402.563,35.000,45.071,45.000,0.00,0.07,-272.87,-272.91,-12,533,-947,24.1,13.5,-5.6,23.7,14.1,-5.3,0.49,1.71,-1.6,27.9
2016-10-09 00:46:00,0.0,1.96702,0.00161,399.797,0.081,0.5315,0.0016,139.999,45.000,31700.33949,1.97754,402.396,34.999,45.071,45.000,0.00,0.07,-272.88,-272.91,-11,533,-947,24.1,13.5,-5.5,23.7,14.1,-5.3,0.49,2.06,-1.7,27.9
2016-10-09 00:47:00,0.0,1.97126,0.00114,400.044,0.110,0.5342,0.0022,140.000,45.000,31700.45618,1.98164,402.650,34.995,45.071,45.000,0.00,0.07,-272.88,-272.92,-11,533,-947,24.1,13.6,-5.5,23.7,14.1,-5.3,0.49,1.87,-1.6,27.9
2016-10-09 00:48:00,0.0,1.97368,0.00096,400.339,0.077,0.5374,0.0015,139.996,45.000,31700.09622,1.98435,402.966,34.995,45.071,45.000,0.00,0.07,-272.89,-272.91,-12,533,-947,24.1,13.6,-5.4,23.7,14.2,-5.2,0.49,1.81,-1.6,27.9
2016-10-09 00:49:00,0.0,1.97064,0.00189,400.252,0.071,0.5392,0.0018,140.001,45.000,31702.86020,1.98141,402.890,34.999,45.071,45.000,0.00,0.07,-272.87,-272.91,-11,534,-947,24.1,13.7,-5.3,23.7,14.3,-5.1,0.49,2.09,-1.6,27.9
2016-10-09 00:50:00,0.0,1.96711,0.00059,400.386,0.041,0.5414,0.0022,140.001,45.000,31702.89449,1.97775,403.034,35.000,45.071,45.000,0.00,0.07,-272.88,-272.92,-11,533,-947,24.1,13.8,-5.3,23.7,14.3,-5.1,0.49,1.71,-1.6,28.0
2016-10-09 00:51:00,0.0,1.96765,0.00058,400.332,0.061,0.5464,0.0019,140.001,45.000,31702.38062,1.97842,403.007,35.007,45.071,45.000,0.00,0.07,-272.88,-272.91,-12,533,-947,24.0,13.9,-5.2,23.7,14.4,-5.0,0.49,2.04,-1.6,28.0
2016-10-09 00:52:00,0.0,1.96717,0.00038,400.064,0.111,0.5468,0.0020,139.999,45.000,31699.54676,1.97797,402.744,35.022,45.071,45.000,0.00,0.07,-272.87,-272.91,-11,533,-947,24.1,13.9,-5.2,23.7,14.5,-4.9,0.50,1.86,-1.6,28.0
2016-10-09 00:53:00,0.0,1.96759,0.00075,399.982,0.033,0.5482,0.0016,140.000,45.000,31698.71974,1.97828,402.665,35.044,45.071,45.000,0.00,0.07,-272.88,-272.91,-11,533,-947,24.1,13.9,-5.2,23.7,14.5,-4.9,0.49,1.84,-1.6,28.0
2016-10-09 00:54:00,0.0,1.97163,0.00167,400.140,0.106,0.5448,0.0020,139.998,45.000,31698.86945,1.98224,402.800,35.062,45.071,45.000,0.00,0.07,-272.88,-272.92,-12,534,-947,24.1,13.9,-5.2,23.7,14.5,-4.9,0.49,2.06,-1.6,28.0
2016-10-09 00:55:00,0.0,1.97307,0.00108,400.199,0.060,0.5425,0.0019,139.999,45.000,31700.44782,1.98375,402.852,35.062,45.071,45.000,0.00,0.07,-272.87,-272.92,-11,534,-947,24.1,13.8,-5.3,23.7,14.4,-5.0,0.49,1.71,-1.6,28.1
2016-10-09 00:56:00,0.0,1.97255,0.00079,400.182,0.042,0.5432,0.0013,140.002,45.000,31701.11436,1.98337,402.842,35.062,45.071,45.000,0.00,0.07,-272.88,-272.92,-11,533,-947,24.1,13.8,-5.3,23.7,14.4,-5.0,0.49,2.07,-1.6,28.0
2016-10-09 00:57:00,0.0,1.97061,0.00044,400.124,0.044,0.5431,0.0018,139.999,45.000,31700.43055,1.98134,402.780,35.060,45.071,45.000,0.00,0.07,-272.88,-272.93,-12,533,-947,24.1,13.8,-5.3,23.7,14.4,-5.0,0.49,1.84,-1.6,28.0
2016-10-09 00:58:00,0.0,1.97045,0.00078,400.123,0.060,0.5437,0.0017,139.998,45.000,31700.84363,1.98115,402.783,35.053,45.071,45.000,0.00,0.07,-272.88,-272.91,-11,534,-947,24.1,13.8,-5.3,23.7,14.4,-5.0,0.49,1.83,-1.6,27.9
2016-10-09 00:59:00,0.0,1.96924,0.00167,400.031,0.130,0.5423,0.0020,139.998,45.000,31699.75293,1.97996,402.685,35.019,45.071,45.000,0.00,0.07,-272.88,-272.91,-11,533,-947,24.1,13.8,-5.3,23.7,14.4,-5.0,0.49,2.09,-1.6,27.9
2016-10-09 01:00:00,0.0,1.96998,0.00031,400.129,0.042,0.5420,0.0026,140.002,45.000,31703.14479,1.98066,402.780,35.005,45.071,45.000,0.00,0.07,-272.88,-272.92,-12,534,-947,24.1,13.8,-5.3,23.7,14.4,-5.0,0.49,1.72,-1.6,27.8
2016-10-09 01:01:00,0.0,1.96902,0.00068,399.933,0.086,0.5473,0.0017,140.001,45.000,31700.72812,1.97981,402.611,35.002,45.071,45.000,0.00,0.07,-272.88,-272.92,-11,534,-947,24.1,13.9,-5.2,23.7,14.4,-5.0,0.49,2.01,-1.6,27.8
2016-10-09 01:02:00,0.0,1.96948,0.00064,399.974,0.029,0.5480,0.0023,140.001,45.000,31699.33780,1.98034,402.654,35.001,45.071,45.000,0.00,0.07,-272.87,-272.91,-11,533,-947,24.1,13.9,-5.2,23.7,14.5,-4.9,0.50,1.94,-1.6,28.0
2016-10-09 01:03:00,0.0,1.96914,0.00070,399.940,0.043,0.5449,0.0029,140.001,45.000,31701.58529,1.97981,402.603,35.001,45.071,45.000,0.00,0.07,-272.88,-272.91,-12,533,-947,24.1,13.8,-5.2,23.7,14.4,-5.0,0.49,1.76,-1.6,28.0
2016-10-09 01:04:00,0.0,1.96931,0.00046,399.956,0.033,0.5491,0.0025,140.002,45.000,31701.00565,1.98014,402.640,35.001,45.071,45.000,0.00,0.07,-272.88,-272.91,-11,534,-947,24.1,13.9,-5.1,23.7,14.5,-4.9,0.49,2.11,-1.6,28.0
2016-10-09 01:05:00,0.0,1.96901,0.00040,399.942,0.050,0.5498,0.0022,140.001,45.000,31699.93276,1.97986,402.631,35.000,45.071,45.000,0.00,0.07,-272.87,-272.91,-11,533,-947,24.1,14.0,-5.1,23.7,14.5,-4.9,0.49,1.73,-1.6,28.0
2016-10-09 01:06:00,0.0,1.96903,0.00050,399.966,0.040,0.5476,0.0012,140.002,45.000,31700.92178,1.97980,402.646,34.999,45.071,45.000,0.00,0.07,-272.88,-272.91,-12,534,-947,24.1,13.9,-5.2,23.7,14.5,-4.9,0.49,1.99,-1.6,27.9
2016-10-09 01:07:00,0.0,1.96902,0.00041,400.024,0.066,0.5483,0.0022,139.999,45.000,31700.11689,1.97981,402.704,35.000,45.071,45.000,0.00,0.07,-272.88,-272.93,-11,534,-947,24.1,13.9,-5.1,23.7,14.5,-4.9,0.49,1.94,-1.6,28.0
2016-10-09 01:08:00,0.0,1.96920,0.00079,400.061,0.061,0.5481,0.0021,140.002,45.000,31701.01485,1.98001,402.746,35.000,45.071,45.000,0.00,0.07,-272.87,-272.92,-11,533,-947,24.1,13.8,-5.2,23.7,14.5,-4.9,0.49,1.76,-1.6,28.0
2016-10-09 01:09:00,0.0,1.97012,0.00045,399.978,0.033,0.5466,0.0018,140.001,45.000,31700.82018,1.98090,402.648,35.001,45.071,45.000,0.00,0.07,-272.87,-272.91,-12,533,-947,24.1,13.8,-5.2,23.7,14.4,-5.0,0.49,2.10,-1.6,28.0
2016-10-09 01:10:00,0.0,1.96973,0.00071,399.923,0.130,0.5460,0.0022,139.999,45.000,31699.86887,1.98049,402.598,35.004,45.071,45.000,0.00,0.07,-272.88,-272.92,-11,534,-947,24.1,13.8,-5.2,23.8,14.4,-4.9,0.49,1.72,-1.6,28.0
2016-10-09 01:11:00,0.0,1.96953,0.00142,399.724,0.137,0.5402,0.0027,139.999,45.000,31700.14570,1.98008,402.360,35.048,45.071,45.000,0.00,0.07,-272.89,-272.92,-11,533,-947,24.1,13.7,-5.4,23.7,14.3,-5.1,0.49,2.00,-1.6,28.1
2016-10-09 01:12:00,0.0,1.97214,0.00108,400.031,0.114,0.5406,0.0024,140.000,45.000,31699.20971,1.98285,402.677,35.058,45.071,45.000,0.00,0.07,-272.87,-272.92,-12,534,-947,24.1,13.7,-5.3,23.7,14.2,-5.1,0.49,1.94,-1.6,28.0
2016-10-09 01:13:00,0.0,1.96986,0.00093,399.834,0.098,0.5448,0.0026,139.999,45.000,31698.40505,1.98066,402.500,35.061,45.071,45.000,0.00,0.07,-272.88,-272.92,-11,534,-947,24.2,13.8,-5.2,23.8,14.3,-5.0,0.49,1.76,-1.6,28.0
2016-10-09 01:14:00,0.0,1.97041,0.00112,399.823,0.121,0.5464,0.0016,139.999,45.000,31697.34210,1.98109,402.489,35.056,45.070,45.000,0.00,0.07,-272.89,-272.92,-12,533,-947,24.1,13.9,-5.2,23.8,14.4,-4.9,0.49,2.11,-1.6,28.0
2016-10-09 01:15:00,0.0,1.97097,0.00052,399.847,0.057,0.5482,0.0017,140.000,45.000,31697.63508,1.98179,402.528,35.049,45.070,45.000,0.00,0.07,-272.87,-272.92,-12,534,-947,24.1,13.9,-5.2,23.7,14.5,-4.9,0.49,1.72,-1.6,28.1
2016-10-09 01:16:00,0.0,1.97117,0.00067,399.892,0.051,0.5505,0.0014,140.001,45.000,31697.59907,1.98207,402.583,35.063,45.071,45.000,0.00,0.07,-272.88,-272.90,-11,534,-947,24.1,13.9,-5.1,23.8,14.5,-4.9,0.49,2.02,-1.6,28.1
2016-10-09 01:17:00,0.0,1.97029,0.00056,399.886,0.059,0.5520,0.0019,140.000,45.000,31697.56238,1.98121,402.588,35.064,45.071,45.000,0.00,0.07,-272.88,-272.92,-12,533,-947,24.1,14.0,-5.1,23.8,14.5,-4.8,0.49,1.90,-1.6,28.0
2016-10-09 01:18:00,0.0,1.96903,0.00060,399.833,0.081,0.5521,0.0021,139.998,45.000,31697.59357,1.97991,402.532,35.063,45.071,45.000,0.00,0.07,-272.88,-272.91,-12,534,-947,24.2,13.9,-5.1,23.8,14.6,-4.8,0.49,1.79,-1.6,28.1
2016-10-09 01:19:00,0.0,1.96945,0.00037,399.799,0.062,0.5505,0.0019,140.000,45.000,31699.02233,1.98027,402.493,35.063,45.071,45.000,0.00,0.07,-272.87,-272.91,-11,534,-947,24.2,13.9,-5.1,23.8,14.5,-4.8,0.49,2.09,-1.6,28.0
2016-10-09 01:20:00,0.0,1.97002,0.00067,399.735,0.054,0.5521,0.0021,139.997,45.000,31698.18267,1.98092,402.434,35.069,45.071,45.000,0.00,0.07,-272.87,-272.92,-12,534,-947,24.2,13.9,-5.1,23.8,14.5,-4.8,0.49,1.71,-1.6,28.0
2016-10-09 01:21:00,0.0,1.97083,0.00063,399.815,0.081,0.5479,0.0024,140.003,45.000,31702.39814,1.98157,402.491,35.080,45.071,45.000,0.00,0.07,-272.89,-272.91,-12,534,-947,24.2,13.8,-5.2,23.8,14.5,-4.8,0.49,2.04,-1.6,28.0
2016-10-09 01:22:00,0.0,1.97086,0.00052,399.879,0.064,0.5493,0.0017,140.002,45.000,31703.05745,1.98170,402.567,35.079,45.071,45.000,0.00,0.07,-272.87,-272.91,-11,533,-947,24.1,13.8,-5.2,23.8,14.5,-4.9,0.49,1.88,-1.5,28.0
2016-10-09 01:23:00,0.0,1.97194,0.00046,399.835,0.068,0.5483,0.0020,140.000,45.000,31701.70343,1.98271,402.513,35.068,45.071,45.000,0.00,0.07,-272.88,-272.91,-12,534,-947,24.2,13.7,-5.2,23.8,14.5,-4.9,0.49,1.81,-1.6,28.0
2016-10-09 01:24:00,0.0,1.97233,0.00038,399.877,0.051,0.5454,0.0017,139.997,45.000,31697.70626,1.98311,402.544,35.063,45.071,45.000,0.00,0.07,-272.88,-272.93,-12,534,-947,24.2,13.7,-5.3,23.8,14.4,-4.9,0.49,2.08,-1.6,28.0
2016-10-09 01:25:00,0.0,1.97189,0.00058,399.827,0.070,0.5446,0.0018,140.001,45.000,31696.94232,1.98262,402.490,35.062,45.071,45.000,0.00,0.07,-272.87,-272.91,-11,534,-947,24.2,13.7,-5.3,23.8,14.3,-5.0,0.49,1.70,-1.6,28.0
2016-10-09 01:26:00,0.0,1.97199,0.00034,399.841,0.090,0.5448,0.0022,140.000,45.000,31696.09022,1.98273,402.502,35.063,45.071,45.000,0.00,0.07,-272.87,-272.91,-12,534,-947,24.2,13.7,-5.3,23.8,14.4,-5.0,0.49,2.06,-1.6,28.0
2016-10-09 01:27:00,0.0,1.97440,0.00106,400.127,0.132,0.5445,0.0019,139.998,45.000,31697.35085,1.98502,402.787,35.063,45.071,45.000,0.00,0.07,-272.88,-272.92,-11,534,-947,24.2,13.6,-5.3,23.8,14.4,-5.0,0.49,1.84,-1.5,28.1
2016-10-09 01:28:00,0.0,1.97338,0.00169,400.091,0.173,0.5426,0.0015,140.002,45.000,31700.46596,1.98426,402.752,35.062,45.071,45.000,0.00,0.07,-272.88,-272.91,-11,534,-947,24.2,13.6,-5.4,23.8,14.3,-5.0,0.49,1.85,-1.5,28.0
2016-10-09 01:29:00,0.0,1.97066,0.00079,399.805,0.073,0.5433,0.0017,140.000,45.000,31698.58381,1.98137,402.459,35.062,45.071,45.000,0.00,0.07,-272.88,-272.91,-12,534,-947,24.2,13.6,-5.3,23.8,14.3,-5.0,0.49,2.05,-1.5,28.1
2016-10-09 01:30:00,0.0,1.97015,0.00049,399.677,0.081,0.5446,0.0017,139.999,45.000,31698.28536,1.98092,402.342,35.063,45.071,45.000,0.00,0.07,-272.88,-272.91,-11,534,-947,24.2,13.6,-5.3,23.8,14.3,-5.0,0.49,1.70,-1.5,28.1
2016-10-09 01:31:00,0.0,1.97061,0.00034,399.798,0.104,0.5437,0.0015,139.999,45.000,31697.65826,1.98133,402.456,35.063,45.071,45.000,0.00,0.07,-272.88,-272.92,-11,533,-947,24.2,13.6,-5.4,23.8,14.3,-5.0,0.49,2.09,-1.5,28.1
2016-10-09 01:32:00,0.0,1.97059,0.00039,399.685,0.053,0.5419,0.0019,139.999,45.000,31698.56419,1.98125,402.332,35.063,45.071,45.000,0.00,0.07,-272.87,-272.91,-12,534,-947,24.2,13.6,-5.4,23.8,14.3,-5.0,0.49,1.78,-1.5,28.0
2016-10-09 01:33:00,0.0,1.97080,0.00038,399.793,0.045,0.5398,0.0016,139.998,45.000,31699.23825,1.98143,402.430,35.064,45.071,45.000,0.00,0.07,-272.88,-272.91,-11,534,-947,24.2,13.5,-5.5,23.8,14.2,-5.1,0.49,1.91,-1.5,27.9
2016-10-09 01:34:00,0.0,1.97058,0.00049,399.811,0.051,0.5403,0.0018,140.000,45.000,31699.34063,1.98129,402.454,35.065,45.071,45.000,0.00,0.07,-272.88,-272.92,-11,534,-947,24.2,13.5,-5.4,23.8,14.2,-5.1,0.49,2.02,-1.5,27.8
2016-10-09 01:35:00,0.0,1.96923,0.00152,399.722,0.115,0.5421,0.0017,139.999,45.000,31698.48637,1.97986,402.371,35.062,45.071,45.000,0.00,0.07,-272.87,-272.92,-12,534,-947,24.2,13.6,-5.4,23.8,14.2,-5.1,0.49,1.71,-1.5,27.8
2016-10-09 01:36:00,0.0,1.97013,0.00055,399.670,0.054,0.5423,0.0025,140.002,45.000,31700.69124,1.98083,402.320,35.062,45.071,45.000,0.00,0.07,-272.88,-272.92,-11,534,-947,24.2,13.6,-5.4,23.8,14.3,-5.0,0.49,2.08,-1.5,27.8
2016-10-09 01:37:00,0.0,1.97045,0.00046,399.775,0.048,0.5397,0.0021,140.004,45.000,31702.37780,1.98106,402.410,35.062,45.071,45.000,0.00,0.07,-272.87,-272.92,-11,534,-947,24.2,13.5,-5.4,23.8,14.2,-5.1,0.49,1.82,-1.5,27.9
2016-10-09 01:38:00,0.0,1.97109,0.00032,399.831,0.060,0.5415,0.0016,140.002,45.000,31701.66297,1.98178,402.481,35.063,45.071,45.000,0.00,0.07,-272.88,-272.92,-12,534,-947,24.2,13.5,-5.4,23.8,14.2,-5.1,0.49,1.85,-1.5,27.9
2016-10-09 01:39:00,0.0,1.97123,0.00044,399.876,0.072,0.5417,0.0023,140.000,45.000,31702.37031,1.98191,402.524,35.064,45.071,45.000,0.00,0.07,-272.88,-272.91,-11,534,-947,24.2,13.6,-5.4,23.8,14.2,-5.1,0.49,2.06,-1.5,28.0
2016-10-09 01:40:00,0.0,1.97118,0.00039,399.834,0.046,0.5448,0.0023,140.001,45.000,31701.10618,1.98191,402.496,35.065,45.071,45.000,0.00,0.07,-272.87,-272.92,-11,534,-947,24.2,13.6,-5.3,23.9,14.3,-5.0,0.49,1.70,-1.5,28.1
2016-10-09 01:41:00,0.0,1.97129,0.00022,399.883,0.034,0.5442,0.0016,139.998,45.000,31699.94663,1.98203,402.541,35.063,45.071,45.000,0.00,0.07,-272.89,-272.92,-12,534,-947,24.2,13.6,-5.3,23.8,14.3,-5.0,0.49,2.08,-1.5,28.0
2016-10-09 01:42:00,0.0,1.97150,0.00035,399.945,0.040,0.5447,0.0016,140.001,45.000,31700.03818,1.98224,402.609,35.063,45.071,45.000,0.00,0.07,-272.87,-272.92,-11,534,-947,24.3,13.6,-5.3,23.9,14.3,-5.0,0.49,1.82,-1.5,28.0
2016-10-09 01:43:00,0.0,1.97153,0.00035,399.990,0.035,0.5445,0.0017,139.999,45.000,31701.74953,1.98224,402.652,35.061,45.071,45.000,0.00,0.07,-272.88,-272.91,-11,534,-947,24.2,13.6,-5.3,23.9,14.3,-5.0,0.49,1.88,-1.5,28.0
2016-10-09 01:44:00,0.0,1.97235,0.00041,400.115,0.069,0.5463,0.0017,140.002,45.000,31701.40177,1.98311,402.785,35.063,45.071,45.000,0.00,0.07,-272.89,-272.92,-12,534,-947,24.2,13.7,-5.3,23.8,14.3,-4.9,0.49,2.03,-1.5,28.1
2016-10-09 01:45:00,0.0,1.97290,0.00048,400.102,0.050,0.5452,0.0018,139.999,45.000,31699.74677,1.98367,402.768,35.053,45.071,45.000,0.00,0.07,-272.88,-272.92,-11,534,-947,24.2,13.6,-5.3,23.9,14.3,-5.0,0.49,1.71,-1.5,28.1